Flag for India Past Weather in Thiruvananthapuram, Kerala, India — Yesterday and Last 2 Weeks

Now
84 °F

Broken clouds.


Feels Like: 94 °F
Forecast: 77 / 83 °F
Wind: 13 mph from Northwest

Location: Thiruvananthapuram

Current Time: Jul 25, 2016 at 3:42:57 PM

Latest Report: Jul 25, 2016 at 3:00 PM


Visibility: 3 mi

Pressure: 29.71 "Hg

Humidity: 79%

Dew Point: 77 °F

Location of ThiruvananthapuramLocation

Past Weather in Thiruvananthapuram — Graph

°F

Thiruvananthapuram Temperature Yesterday

Maximum temperature yesterday: 82 °F (at 11:30 AM)
Minimum temperature yesterday: 75 °F (at 7:30 AM)
Average temperature yesterday: 79 °F

High & Low Weather Summary for the Past Weeks

 TemperatureHumidityPressure
High88 °F (Jul 10, 2:00 PM)94% (Jul 10, 4:30 PM)29.89 "Hg (Jul 10, 4:30 PM)
Low73 °F (Jul 12, 6:00 PM)62% (Jul 14, 12:30 PM)29.71 "Hg (Jul 10, 4:00 PM)
Average81 °F84%29.79 "Hg
* Reported Jul 10 1:30 PM — Jul 25 2:00 PM, Thiruvananthapuram, Weather by CustomWeather, © 2016

Note: Actual official high and low records may vary slightly from our data, if they occured in-between our weather recording intervals... More about our weather records

Advertising

Thiruvananthapuram Weather History for the Previous 24 Hours

Scroll right to see more
 ConditionsComfort  
Time TempWeatherWind HumidityBarometerVisibility
2:00 PM
Mon, Jul 25
84 °FBroken clouds.12 mph79%29.71 "Hg3 mi
1:30 PM84 °FBroken clouds.13 mph74%29.71 "Hg3 mi
1:00 PM84 °FBroken clouds.13 mph74%29.74 "Hg3 mi
12:30 PM84 °FScattered clouds.13 mph79%29.74 "Hg3 mi
12:00 PM86 °FScattered clouds.9 mph75%29.74 "Hg3 mi
11:30 AM84 °FScattered clouds.9 mph79%29.77 "Hg3 mi
11:00 AM84 °FScattered clouds.10 mph79%29.77 "Hg3 mi
10:30 AM86 °FScattered clouds.13 mph70%29.77 "Hg4 mi
10:00 AM86 °FScattered clouds.15 mph70%29.77 "Hg3 mi
9:30 AM82 °FScattered clouds.9 mph79%29.77 "Hg3 mi
9:00 AM84 °FScattered clouds.N/A74%29.77 "HgN/A
8:30 AM82 °FScattered clouds.9 mph79%29.77 "Hg2 mi
8:00 AM81 °FBroken clouds.10 mph84%29.77 "Hg2 mi
7:30 AM81 °FBroken clouds.9 mph84%29.77 "Hg2 mi
7:00 AM79 °FBroken clouds.7 mph89%29.77 "Hg2 mi
6:30 AM77 °FPartly cloudy.6 mph94%29.74 "Hg2 mi
6:00 AM77 °FPartly cloudy.6 mph94%29.74 "Hg2 mi
5:30 AM77 °FPartly cloudy.7 mph94%29.74 "Hg2 mi
5:00 AM77 °FPartly cloudy.6 mph94%29.74 "Hg2 mi
4:30 AM79 °FPartly cloudy.7 mph89%29.74 "Hg2 mi
4:00 AM79 °FPartly cloudy.7 mph89%29.74 "Hg2 mi
3:30 AM79 °FPartly cloudy.6 mph89%29.74 "Hg2 mi
3:00 AM79 °FPartly cloudy.6 mph89%29.74 "Hg2 mi
2:30 AM79 °FPartly cloudy.7 mph89%29.74 "Hg2 mi
2:00 AM79 °FPartly cloudy.7 mph89%29.74 "Hg2 mi
1:30 AM79 °FPartly cloudy.9 mph89%29.74 "Hg2 mi
1:00 AM79 °FPartly cloudy.8 mph89%29.77 "Hg2 mi
12:30 AM79 °FPartly cloudy.10 mph89%29.77 "Hg2 mi
11:30 PM
Sun, Jul 24
79 °FPartly cloudy.8 mph89%29.80 "Hg2 mi
11:00 PM79 °FPartly cloudy.8 mph89%29.80 "Hg2 mi
10:30 PM79 °FPartly cloudy.8 mph89%29.77 "Hg2 mi
10:00 PM79 °FPartly cloudy.10 mph89%29.80 "Hg2 mi
9:30 PM79 °FPartly cloudy.9 mph89%29.77 "Hg2 mi
9:00 PM81 °FPartly cloudy.10 mph84%29.77 "Hg2 mi
8:00 PM81 °FPartly cloudy.7 mph84%29.77 "Hg2 mi
7:30 PM79 °FPartly cloudy.10 mph89%29.74 "Hg2 mi
7:00 PM81 °FBroken clouds.12 mph84%29.74 "Hg2 mi
6:30 PM81 °FBroken clouds.13 mph84%29.71 "Hg2 mi
6:00 PM81 °FBroken clouds.12 mph84%29.71 "Hg2 mi
5:30 PM81 °FBroken clouds.9 mph84%29.71 "Hg2 mi
5:00 PM81 °FBroken clouds.12 mph84%29.71 "Hg2 mi
4:30 PM81 °FBroken clouds.14 mph84%29.71 "Hg2 mi
4:00 PM81 °FBroken clouds.14 mph84%29.71 "Hg2 mi
3:30 PM81 °FBroken clouds.13 mph84%29.71 "Hg2 mi
3:00 PM82 °FFog.12 mph79%29.71 "Hg2 mi
Weather by CustomWeather, © 2016

See weather overviewHow to use our weather pages